This demonstration page uses our WeatherBlox Daily Observations layout. Learn more.

Left ArrowRight Arrow

Hourly Observations for August 27, 2019

Temp ( °F °C ) Dew Point ( °F °C ) Humidity (%) Winds ( mph kmh ) Pressure ( in mb ) Visibility ( mi km ) Precip ( " mm )
12:59 am 00:59 Cloudy 72 22.2 65 18.3 79 79 NNE 9 15 30.08 1019 10 16 0.00 0.00
1:59 am 01:59 Cloudy 72 22.2 66 18.9 82 82 NNE 10 17 30.06 1018 10 16 0.00 0.00
2:19 am 02:19 Cloudy 72 22.2 66 18.9 82 82 NE 9 15 30.06 1018 9 14 0.00 0.00
2:59 am 02:59 Cloudy 71 21.7 66 18.9 84 84 NE 9 15 30.04 1017 9 14 0.00 0.00
3:59 am 03:59 Mostly Cloudy 72 22.2 67 19.4 84 84 NNE 8 13 30.03 1017 9 14 0.00 0.00
4:59 am 04:59 Mostly Cloudy 71 21.7 67 19.4 87 87 NE 8 13 30.01 1016 9 14 0.00 0.00
5:59 am 05:59 Mostly Cloudy 71 21.7 68 20 90 90 NE 9 15 30.00 1016 9 14 0.00 0.00
6:59 am 06:59 Mostly Cloudy 72 22.2 68 20 87 87 NE 9 15 30.01 1016 8 13 0.00 0.00
7:59 am 07:59 Cloudy 73 22.8 68 20 84 84 NE 10 17 30.02 1017 8 13 0.00 0.00
8:59 am 08:59 Cloudy 74 23.3 69 20.6 85 85 NE 9 15 30.03 1017 8 13 0.00 0.00
9:59 am 09:59 Mostly Cloudy 77 25 69 20.6 77 77 NNE 9 15 30.04 1017 8 13 0.00 0.00
10:59 am 10:59 Mostly Cloudy with Light Rain 76 24.4 70 21.1 82 82 NNE 10 17 30.04 1017 7 11 0.00 0.00
11:59 am 11:59 Mostly Cloudy 76 24.4 70 21.1 82 82 ENE 10 17 30.02 1017 8 13 0.00 0.00
12:59 pm 12:59 Mostly Cloudy 77 25 71 21.7 82 82 NE 12 19 30.01 1016 8 13 0.00 0.00
1:59 pm 13:59 Mostly Cloudy 78 25.6 71 21.7 79 79 NNE 9 15 29.99 1016 10 16 0.00 0.00
2:59 pm 14:59 Mostly Cloudy with Light Rain 77 25 71 21.7 82 82 N 7 11 29.98 1015 7 11 0.00 0.00
3:25 pm 15:25 Cloudy with Light Rain 75 23.9 72 22.2 90 90 N 9 15 29.98 1015 7 11 0.00 0.00
3:50 pm 15:50 Cloudy with Light Rain 76 24.4 71 21.7 85 85 NNE 13 20 29.98 1015 9 14 0.00 0.00
3:57 pm 15:57 Cloudy with Light Rain 75 24 72 22 89 89 NNE 10 17 29.98 1015 5 8 0.00 0.00
3:59 pm 15:59 Cloudy with Light Rain 76 24.4 72 22.2 88 88 NNE 14 22 29.98 1015 5 8 0.00 0.00
4:21 pm 16:21 Cloudy 75 23.9 72 22.2 90 90 NNE 10 17 29.98 1015 10 16 0.00 0.00
4:43 pm 16:43 Cloudy 75 23.9 71 21.7 88 88 NNE 12 19 29.97 1015 9 14 0.00 0.00
4:59 pm 16:59 Cloudy 76 24.4 71 21.7 85 85 NNE 9 15 29.97 1015 10 16 0.00 0.00
5:59 pm 17:59 Cloudy 75 23.9 71 21.7 88 88 NE 9 15 29.96 1015 10 16 0.00 0.00
6:15 pm 18:15 Cloudy 76 24.4 70 21.1 82 82 NNE 9 15 29.96 1015 10 16 0.00 0.00
6:59 pm 18:59 Cloudy 75 23.9 69 20.6 82 82 N 10 17 29.96 1015 10 16 0.00 0.00
7:33 pm 19:33 Cloudy with Light Rain 73 22.8 70 21.1 90 90 N 8 13 29.96 1015 3 4 0.00 0.00
7:51 pm 19:51 Cloudy with Light Rain 74 23.3 71 21.7 91 91 N 7 11 29.96 1015 6 10 0.00 0.00
7:59 pm 19:59 Cloudy with Drizzle 74 23.3 71 21.7 91 91 N 7 11 29.96 1015 10 16 0.00 0.00
8:37 pm 20:37 Cloudy with Light Rain 73 22.8 71 21.7 94 94 NNE 7 11 29.96 1015 4 6 0.00 0.00
8:51 pm 20:51 Cloudy with Mist and Fog 73 22.8 72 22.2 96 96 N 7 11 29.97 1015 2 3 0.00 0.00
8:59 pm 20:59 Cloudy with Mist and Fog 73 22.8 71 21.7 94 94 N 6 9 29.96 1015 2 3 0.01 0.25
9:11 pm 21:11 Cloudy 73 22.8 72 22.2 96 96 N 6 9 29.97 1015 10 16 0.01 0.25
9:59 pm 21:59 Cloudy with Mist and Fog 73 22.8 72 22.2 96 96 NNE 6 9 29.96 1015 3 5 0.01 0.25
10:59 pm 22:59 Cloudy with Drizzle 73 22.8 72 22.2 96 96 NNE 7 11 29.96 1015 3 5 0.00 0.00
11:59 pm 23:59 Cloudy 74 23.3 72 22.2 94 94 NNE 7 11 29.95 1014 9 14 0.00 0.00

Powered by AerisWeather